天目一号 18星 (TIANMU-1 18)

导读

TIANMU-1 18(天目一号18星)是中国研制的气象观测卫星,于北京时间2024年1月5日在酒泉卫星发射中心,由快舟一号甲运载火箭以“一箭四星”方式发射入轨。它属于天目一号气象星座,可全天候获取大气、海洋等多类环境要素数据,服务于数值天气预报、台风监测等领域,支撑气候变化研究与空间天气预警。

Basic Information
目录编号:
58703
目录名称:
TIANMU-1 18
国际标识:
2024-004D
轨道中心:
EARTH
卫星名称:
天目一号 18星
卫星全名:
天目一号 18星 (TIANMU-1 18)
卫星状态:
在轨 (已飞行934 天)
发射日期:
2024-01-05 UTC
国别 :
中国 (CN)
星等 :
--
Orbit Information
数据来源 国际轨道数据 AOE轨道数据
星历时间 2026-07-27T22:45:11+0800
8小时前
查看轨道信息
2026-07-26T15:00:00+0800
1天前
查看轨道信息
半长轴 6862.806km 6862.856km
偏心率 0.0004895 0.0004858
轨道倾角 97.466° 97.467°
近地点辐角 176.182° 182.321°
升交点赤经 34.781° 33.457°
平近点角 183.946° 109.265°
近地点 481.309km 481.385km
远地点 488.029km 488.053km
周期 94.300分钟 94.301分钟
每日圈数 15.270393 15.270227
Detailed Information
覆盖范围:
全球
运营商:
中国航天科工集团有限公司
运营商所在国:
中国
制造商(研发单位):
中国航天科工集团有限公司
制造商所在国:
中国
使用方式:
暂无
Satellite Introduction
天目一号气象星座,是由中国航天科工集团落户西部(重庆)科学城西永微电园企业研制,主要用于获取全球大气环境要素信息,建成后可实现全球全天候海洋、大气层、电离层的立体化、一体化探测。该卫星仍在工作。
2D Orbit Map
3D Orbit Map
Orbit Altitude Analysis Chart
Orbit Inclination Analysis Chart
Orbit Comprehensive Analysis Chart
View Comprehensive Chart